sat.trackr.live / text

‹ back to catalog

STARLINK-32392

NORAD 61214 · 2024-171Q

PAYLOAD ACTIVE UNKNOWN

§ Identity

Operator
Country
US
Launch date
2024-09-20
Launch site
AFWTR
Launch vehicle
Mass (kg)
RCS (m²)

Purposes: comms

External: N2YO · Heavens-Above · Gunter

§ Orbital elements

Epoch: 2026-05-24T18:27:55.701216Z

Period
93.85 min
Inclination
53.1617°
Eccentricity
0.0000946
Mean motion
15.34385678 rev/d
Perigee alt
462.1 km
Apogee alt
463.4 km
Semi-major
6,840.9 km
B*
2.2883e-5
RAAN
328.5632°
Arg perigee
106.8112°
Mean anomaly
253.2995°
Rev number
9,402

§ Raw data

STARLINK-323921 61214U 24171Q   26144.76939469  .00000397  00000+0  22883-4 0  99942 61214  53.1617 328.5632 0000946 106.8112 253.2995 15.34385678 94026

JSON: /api/v1/satellites/61214 · /tle

For live sub-satellite position, see the globe view (requires WebGL).

§ Visibility from observer

Set your observer location to see the next 7 days of passes ≥ 10°. The values pass through the URL so the page stays shareable.

No JS? Fill the form by hand. The geolocation button needs JavaScript.